Hourly Data Report for September 19, 2017

All times are specified in Local Standard Time (LST). Add 1 hour to adjust for Daylight Saving Time where and when it is observed.

CAPE DORSET A
NUNAVUT

64°13'49.000" N
76°31'30.000" W
48.20 m
2400637
71366
YTE

Download Data

Hourly Data (September 2017)
Hourly Data Report for September 19, 2017
Temp Definition
°C
Dew Point Temp Definition
°C
Rel Hum Definition
%
Wind Dir Definition
10's deg

Wind Spd Definition
km/h
Visibility Definition
km
Stn Press Definition
kPa
Hmdx Definition


Wind Chill Definition


Weather Definition


TIME
00:00 Legend Double Dagger 1.1 1.1 100 4 11 1.0 100.82     Fog
01:00 Legend Double Dagger 1.6 1.6 100 6 11 16.1 100.78     LegendNANA
02:00 Legend Double Dagger 1.7 1.3 97 7 17 16.1 100.73     LegendNANA
03:00 Legend Double Dagger 1.8 1.2 96 7 17 16.1 100.68     LegendNANA
04:00 Legend Double Dagger 1.6 1.0 96 9 15 16.1 100.63     LegendNANA
05:00 Legend Double Dagger 1.6 1.0 96 8 24 16.1 100.58     Rain
06:00 Legend Double Dagger 1.6 1.0 96 8 32 16.1 100.54     LegendNANA
07:00 Legend Double Dagger 1.7 1.1 96 8 30 16.1 100.55     LegendNANA
08:00 Legend Double Dagger 1.9 1.3 96 9 35 16.1 100.54     LegendNANA
09:00 Legend Double Dagger 2.2 1.3 94 8 32 16.1 100.54     LegendNANA
10:00 Legend Double Dagger 2.5 1.3 92 8 32 16.1 100.54     LegendNANA
11:00 Legend Double Dagger 2.8 1.3 90 9 32 16.1 100.52     LegendNANA
12:00 Legend Double Dagger 2.9 1.4 90 8 32 16.1 100.54     LegendNANA
13:00 Legend Double Dagger 2.9 1.4 90 8 32 16.1 100.54     LegendNANA
14:00 Legend Double Dagger 3.1 1.1 87 8 30 16.1 100.55     LegendNANA
15:00 Legend Double Dagger 3.1 1.0 86 8 26 16.1 100.56     LegendNANA
16:00 Legend Double Dagger 3.3 1.0 85 8 18 16.1 100.63     LegendNANA
17:00 Legend Double Dagger 3.3 0.1 80 7 13 16.1 100.67     LegendNANA
18:00 Legend Double Dagger 3.4 0.3 80 8 8 16.1 100.68     LegendNANA
19:00 Legend Double Dagger 3.8 -0.4 74 LegendMM 4 16.1 100.71     LegendNANA
20:00 Legend Double Dagger 3.5 0.9 83 2 8 16.1 100.75     LegendNANA
21:00 Legend Double Dagger 2.6 1.0 89 33 13 16.1 100.76     LegendNANA
22:00 Legend Double Dagger 2.2 0.7 90 35 11 16.1 100.80     LegendNANA
23:00 Legend Double Dagger 3.2 1.6 89 32 8 16.1 100.82     LegendNANA

Notes on Data Quality.

Legend

  • E = Estimated
  • M = Missing
  • NA = Not Available
  • ‡ = Partner data that is not subject to review by the National Climate Archives
Date modified: